Weather History for KPIT - August, 2013

Change the Weather History Date:

Friday, August 2, 2013

  Actual Average Record
Temperature  
Mean Temperature 68 °F 72 °F  
Max Temperature 76 °F 82 °F 96 °F (1975)
Min Temperature 60 °F 63 °F 47 °F (1976)
Degree Days  
Heating Degree Days 0 0  
Month to date heating degree days 0 0  
Since 1 June heating degree days 17 42  
Since 1 July heating degree days 1 4  
Cooling Degree Days 3 8  
Month to date cooling degree days 10 16  
Year to date cooling degree days 535 459  
Since 1 June cooling degree days 431 407  
Growing Degree Days 18 (Base 50)    
Moisture  
Dew Point 56 °F    
Average Humidity 66    
Maximum Humidity 90    
Minimum Humidity 41    
Precipitation  
Precipitation 0.00 in 0.12 in 2.12 in (1994)
Month to date precipitation 0.13 0.24  
Year to date precipitation 24.11 23.47  
Snow  
Snow 0.00 in 0.00 in 0.00 in (2002)
Month to date snowfall 0.0 0.0  
Since 1 July snowfall 0.0 0.0  
Snow Depth 0.00 in    
Sea Level Pressure  
Sea Level Pressure 29.97 in    
Wind  
Wind Speed 6 mph (WSW)    
Max Wind Speed 17 mph    
Max Gust Speed 24 mph    
Visibility 10 miles    
Events      
T = Trace of Precipitation, MM = Missing Value Source: NWS Daily Summary

Daily Weather History Graph

Daily Weather History Graph

Search for Another Location

Airport or City:

Trip Planner

Search our weather history database for the weather conditions in past years. The results will help you decide how hot, cold, wet, or windy it might be!

Date:

Astronomy

Aug. 02, 2013 Rise Set
Actual Time 6:19 AM EDT 8:34 PM EDT
Civil Twilight 5:48 AM EDT 9:04 PM EDT
Nautical Twilight 5:11 AM EDT 9:42 PM EDT
Astronomical Twilight 4:29 AM EDT 10:23 PM EDT
Moon 2:38 AM EDT (8/2) 5:30 PM EDT (8/2)
Length of Visible Light 15h 15m
Length of Day
14h 15m
Waning Crescent, 16% of the Moon is Illuminated
Aug 2
Waning Crescent
Aug 6
New
Aug 14
First Quarter
Aug 20
Full
Aug 28
Last Quarter

Hourly Weather History & Observations

Time (EDT) Temp. Dew Point Humidity Pressure Visibility Wind Dir Wind Speed Gust Speed Precip Events Conditions
12:51 AM 64.0 °F 57.9 °F 80% 29.95 in 10.0 mi Calm Calm - N/A   Scattered Clouds
1:51 AM 61.0 °F 57.0 °F 87% 29.94 in 10.0 mi WNW 4.6 mph - N/A   Partly Cloudy
2:51 AM 61.0 °F 57.0 °F 87% 29.94 in 10.0 mi Calm Calm - N/A   Clear
3:51 AM 60.1 °F 57.0 °F 90% 29.94 in 10.0 mi Calm Calm - N/A   Clear
4:51 AM 61.0 °F 57.0 °F 87% 29.93 in 9.0 mi Calm Calm - N/A   Clear
5:51 AM 60.1 °F 57.0 °F 90% 29.95 in 9.0 mi Calm Calm - N/A   Partly Cloudy
6:51 AM 60.1 °F 57.0 °F 90% 29.97 in 9.0 mi West 4.6 mph - N/A   Scattered Clouds
7:51 AM 63.0 °F 57.9 °F 84% 29.99 in 10.0 mi West 8.1 mph - N/A   Partly Cloudy
8:51 AM 66.0 °F 57.9 °F 75% 29.99 in 10.0 mi West 4.6 mph - N/A   Scattered Clouds
9:51 AM 68.0 °F 57.9 °F 70% 29.99 in 10.0 mi SW 6.9 mph - N/A   Scattered Clouds
10:51 AM 71.1 °F 55.0 °F 57% 30.00 in 10.0 mi West 10.4 mph - N/A   Scattered Clouds
11:51 AM 73.0 °F 51.1 °F 46% 30.00 in 10.0 mi West 13.8 mph 20.7 mph N/A   Scattered Clouds
12:51 PM 75.0 °F 52.0 °F 44% 30.01 in 10.0 mi WNW 11.5 mph - N/A   Mostly Cloudy
1:51 PM 73.9 °F 50.0 °F 43% 30.02 in 10.0 mi West 10.4 mph - N/A   Mostly Cloudy
2:51 PM 73.0 °F 51.1 °F 46% 30.02 in 10.0 mi West 9.2 mph 18.4 mph N/A   Mostly Cloudy
3:51 PM 75.0 °F 50.0 °F 41% 29.99 in 10.0 mi SW 15.0 mph 24.2 mph N/A   Mostly Cloudy
4:51 PM 73.0 °F 52.0 °F 48% 29.99 in 10.0 mi West 4.6 mph - N/A   Mostly Cloudy
5:51 PM 73.0 °F 55.0 °F 53% 29.97 in 10.0 mi WSW 5.8 mph - N/A   Overcast
6:51 PM 73.0 °F 55.9 °F 55% 29.96 in 10.0 mi SSW 5.8 mph - N/A   Mostly Cloudy
7:51 PM 73.0 °F 57.9 °F 59% 29.96 in 10.0 mi SW 4.6 mph - N/A   Mostly Cloudy
8:51 PM 72.0 °F 59.0 °F 64% 29.95 in 10.0 mi SSW 5.8 mph - N/A   Mostly Cloudy
9:51 PM 72.0 °F 59.0 °F 64% 29.96 in 10.0 mi SSW 6.9 mph - N/A   Overcast
10:51 PM 72.0 °F 60.1 °F 66% 29.96 in 10.0 mi SW 4.6 mph - N/A   Overcast
11:51 PM 72.0 °F 60.1 °F 66% 29.95 in 10.0 mi SW 5.8 mph - N/A   Overcast